Location: Eboldshausen
(51.7766°N, 10.0050°E)
Time: 15:43:33
(UTC+00:00)

SKYMED 2 - Pass Details

Date: 15 November 2025
Orbit: 621 x 623 km, 97.9° (Epoch: 13 December)

Event Time Altitude Azimuth Distance (km) Brightness Sun altitude
Exits shadow 17:07:59 11° 26° (NNE) 1,937 5.7 -15.1°
Maximum altitude 17:11:59 44° 98° (E) 873 3.9 -15.7°
Drops below altitude 10° 17:16:07 10° 171° (S) 1,988 6.2 -16.3°
Sets 17:18:23 0° 178° (S) 2,889 7.1 -16.7°
